ROMMA est une association bénévole à but non lucratif. Votre soutien est indispensable : ADHERER à ROMMA ou FAIRE un DON

Voiron - (38, Isère)

Voironnais (300 m)   Longitude: 05° 35' E   Latitude: 45° 23' N Station partenaire n°109
 

Détail journalier du     <<     >>

Température Precipitation Humidité Pression Vent Dir Rafale Dir. rafale Ensol.
Heure (°C) (mm) (%) (hPa) (km/h) (km/h) (min)
01:00 20.106110076SSE26S0
02:00 16.107510073N10NO0
03:00 16.507010074NO13NNO0
04:00 17.306610074N16NNO0
05:00 21.704410077SE27SSO0
06:00 22.7044100621SE55SSE0
07:00 22.4045100624SSE56SSE0
08:00 21.5050100616SE39SE0
09:00 21.005210078SE34SE0
10:00 21.505110078ESE29SE0
11:00 23.704010078SE27SSE0
12:00 24.5038100614SSE45SSE0
13:00 25.2039100617SSE48S0
14:00 26.3037100521S61SSE0
15:00 27.4033100523S52S60
16:00 27.1032100425S60SO60
17:00 27.0032100429S79S30
18:00 26.6033100530S64OSO60
19:00 25.7036100629S77S0
20:00 23.7045100834SSE97SSE0
21:00 23.1047100926SSE52SE0
22:00 19.10.670101021SSE58SSE0
23:00 18.40.47210108NNO34SSE0
minuit 16.5285101211SSE50SSE0

Graphique du 20-10-2019

 

Serveur OMMA